Weather History for Knoxville, TN

Change the Weather History Date:

Tuesday, March 5, 2013

  Actual Average Record
Temperature  
Mean Temperature 42 °F 47 °F  
Max Temperature 50 °F 58 °F 78 °F (1910)
Min Temperature 34 °F 37 °F 6 °F (1960)
Degree Days  
Heating Degree Days 23 18  
Month to date heating degree days 142 92  
Since 1 July heating degree days 2834 2988  
Cooling Degree Days 0 0  
Month to date cooling degree days 0 0  
Year to date cooling degree days 2 0  
Moisture  
Dew Point 37 °F    
Average Humidity 74    
Maximum Humidity 96    
Minimum Humidity 51    
Precipitation  
Precipitation 1.43 in 0.13 in 2.98 in (1963)
Month to date precipitation 1.58 0.70  
Year to date precipitation 16.67 9.28  
Snow  
Snow T in 0.10 in - ()
Month to date snowfall 0.8 0.2  
Since 1 July snowfall 3.4 5.3  
Snow Depth 0.00 in    
Sea Level Pressure  
Sea Level Pressure 29.82 in    
Wind  
Wind Speed 10 mph (North)    
Max Wind Speed 33 mph    
Max Gust Speed 43 mph    
Visibility 4 miles    
Events Rain , Snow , Thunderstorm    
T = Trace of Precipitation, MM = Missing Value Source: NWS Daily Summary

Daily Weather History Graph

Daily Weather History Graph

Search for Another Location

Airport:

Trip Planner

Search our weather history database for the weather conditions in past years. The results will help you decide how hot, cold, wet, or windy it might be!

Date:

Astronomy

Mar. 05, 2013 Rise Set
Actual Time 7:00 AM EST 6:34 PM EST
Civil Twilight 6:34 AM EST 7:00 PM EST
Nautical Twilight 6:05 AM EST 7:30 PM EST
Astronomical Twilight 5:35 AM EST 7:59 PM EST
Moon 2:03 AM EST (3/5) 12:21 PM EST (3/5)
Length of Visible Light 12h 25m
Length of Day
11h 34m
Last Quarter, 41% of the Moon is Illuminated
Mar 5
Last Quarter
Mar 11
New
Mar 19
First Quarter
Mar 27
Full
Apr 3
Last Quarter

Hourly Weather History & Observations

Time (EST) Temp. Windchill Dew Point Humidity Pressure Visibility Wind Dir Wind Speed Gust Speed Precip Events Conditions
12:53 AM 39.0 °F - 24.1 °F 55% 30.01 in 10.0 mi Calm Calm - N/A   Scattered Clouds
2:53 AM 41.0 °F 38.0 °F 24.1 °F 51% 29.97 in 10.0 mi North 4.6 mph - N/A   Overcast
3:53 AM 39.9 °F 36.7 °F 26.1 °F 58% 29.95 in 10.0 mi NNE 4.6 mph - N/A   Overcast
4:53 AM 39.0 °F 34.0 °F 30.0 °F 70% 29.93 in 10.0 mi NNE 6.9 mph - 0.00 in   Overcast
5:53 AM 39.0 °F 36.8 °F 33.1 °F 79% 29.93 in 10.0 mi NNE 3.5 mph - 0.01 in Rain Light Rain
6:23 AM 37.4 °F 31.4 °F 33.8 °F 87% 29.94 in 3.0 mi North 8.1 mph - 0.02 in Rain Light Rain
6:53 AM 37.9 °F 32.7 °F 34.0 °F 86% 29.94 in 5.0 mi NE 6.9 mph - 0.07 in Rain Light Rain
7:45 AM 37.4 °F 30.3 °F 33.8 °F 87% 29.93 in 3.0 mi NNE 10.4 mph - N/A Rain Light Rain
7:53 AM 37.0 °F 28.5 °F 34.0 °F 89% 29.95 in 3.0 mi NNE 13.8 mph - 0.01 in Rain Light Rain
7:59 AM 37.4 °F 30.3 °F 33.8 °F 87% 29.93 in 2.5 mi NNE 10.4 mph - 0.00 in Rain Light Rain
8:21 AM 37.4 °F 30.3 °F 35.6 °F 93% 29.94 in 2.0 mi NNE 10.4 mph - 0.00 in Rain Light Rain
8:30 AM 37.4 °F 30.8 °F 35.6 °F 93% 29.94 in 1.5 mi NNE 9.2 mph - 0.00 in Rain Light Rain
8:32 AM 37.4 °F 30.8 °F 35.6 °F 93% 29.94 in 1.2 mi NNE 9.2 mph - 0.00 in Rain Light Rain
8:53 AM 37.0 °F 28.1 °F 35.1 °F 93% 29.99 in 1.5 mi NNW 15.0 mph - 0.02 in Rain Light Rain
8:56 AM 37.4 °F 31.4 °F 35.6 °F 93% 29.96 in 1.0 mi North 8.1 mph 18.4 mph 0.00 in Rain Rain
9:07 AM 37.4 °F 30.3 °F 35.6 °F 93% 29.93 in 1.0 mi East 10.4 mph - 0.08 in Rain Rain
9:21 AM 37.4 °F 32.1 °F 35.6 °F 93% 29.93 in 2.0 mi East 6.9 mph - 0.12 in Rain Light Rain
9:31 AM 37.4 °F 30.3 °F 35.6 °F 93% 29.93 in 1.5 mi East 10.4 mph - 0.13 in Rain Rain
9:46 AM 37.4 °F 30.8 °F 37.4 °F 100% 29.91 in 2.5 mi ENE 9.2 mph - 0.15 in Rain Light Rain
9:53 AM 39.0 °F 32.8 °F 37.0 °F 93% 29.91 in 3.0 mi East 9.2 mph - 0.16 in Rain Light Rain
10:10 AM 39.2 °F 34.2 °F 37.4 °F 93% 29.90 in 2.5 mi East 6.9 mph - 0.00 in Rain Rain
10:35 AM 39.2 °F 35.9 °F 37.4 °F 93% 29.88 in 2.0 mi NNE 4.6 mph - 0.14 in Rain Heavy Rain
10:44 AM 39.2 °F 35.9 °F 37.4 °F 93% 29.87 in 1.0 mi East 4.6 mph - 0.14 in Rain Light Rain
10:53 AM 39.9 °F 35.8 °F 37.9 °F 93% 29.86 in 1.0 mi NE 5.8 mph - 0.14 in Rain Light Rain
11:07 AM 41.0 °F 38.0 °F 39.2 °F 93% 29.85 in 1.5 mi ENE 4.6 mph - 0.01 in Rain Light Rain
11:53 AM 42.1 °F 40.2 °F 39.9 °F 92% 29.83 in 1.5 mi North 3.5 mph - 0.03 in   Overcast
12:13 PM 42.8 °F 41.1 °F 39.2 °F 87% 29.82 in 1.2 mi North 3.5 mph - 0.00 in Rain Light Rain
12:34 PM 42.8 °F 40.1 °F 39.2 °F 87% 29.81 in 1.0 mi WNW 4.6 mph - 0.05 in Rain Rain
12:36 PM 42.8 °F 39.3 °F 39.2 °F 87% 29.81 in 1.5 mi NW 5.8 mph - 0.06 in Rain Rain
12:44 PM 41.0 °F 38.0 °F 39.2 °F 93% 29.81 in 1.0 mi NNW 4.6 mph - 0.07 in Rain Heavy Rain
12:53 PM 41.0 °F 36.4 °F 39.9 °F 96% 29.82 in 1.0 mi NNW 6.9 mph - 0.12 in Rain Heavy Rain
1:16 PM 41.0 °F 36.4 °F 39.2 °F 93% 29.80 in 2.5 mi North 6.9 mph - 0.06 in Rain Rain
1:23 PM 41.0 °F 35.8 °F 39.2 °F 93% 29.80 in 1.5 mi North 8.1 mph - 0.07 in Rain Rain
1:26 PM 41.0 °F 37.1 °F 39.2 °F 93% 29.81 in 1.2 mi North 5.8 mph - 0.08 in Rain Heavy Rain
1:28 PM 41.0 °F 38.0 °F 39.2 °F 93% 29.81 in 0.8 mi NNW 4.6 mph - 0.09 in Rain Heavy Rain
1:46 PM 41.0 °F 34.7 °F 39.2 °F 93% 29.74 in 1.2 mi East 10.4 mph - 0.19 in Rain Light Rain
1:53 PM 42.1 °F 37.7 °F 41.0 °F 96% 29.74 in 1.5 mi ESE 6.9 mph - 0.19 in Rain Light Rain
2:02 PM 44.6 °F 38.1 °F 42.8 °F 93% 29.71 in 3.0 mi East 13.8 mph - N/A   Overcast
2:24 PM 44.6 °F 40.2 °F 42.8 °F 93% 29.68 in 3.0 mi East 8.1 mph - 0.01 in Rain Light Rain
2:32 PM 44.6 °F 40.2 °F 42.8 °F 93% 29.67 in 2.0 mi East 8.1 mph - 0.03 in Rain Light Rain
2:49 PM 44.6 °F 40.2 °F 42.8 °F 93% 29.65 in 1.0 mi East 8.1 mph - 0.05 in Rain , Thunderstorm Light Thunderstorms and Rain
2:53 PM 44.1 °F 39.0 °F 42.1 °F 93% 29.64 in 0.8 mi East 9.2 mph - 0.10 in Rain , Thunderstorm Light Thunderstorms and Rain
2:56 PM 44.6 °F 42.2 °F 42.8 °F 93% 29.64 in 2.0 mi East 4.6 mph - 0.06 in Rain , Thunderstorm Light Thunderstorms and Rain
2:58 PM 44.6 °F 41.4 °F 42.8 °F 93% 29.63 in 3.0 mi ENE 5.8 mph - 0.06 in Rain , Thunderstorm Light Thunderstorms and Rain
3:04 PM 44.6 °F 41.4 °F 42.8 °F 93% 29.63 in 4.0 mi NE 5.8 mph - 0.06 in Rain , Thunderstorm Light Thunderstorms and Rain
3:13 PM 44.6 °F 41.4 °F 42.8 °F 93% 29.63 in 5.0 mi NE 5.8 mph - 0.06 in Rain Light Rain
3:38 PM 44.6 °F 40.7 °F 42.8 °F 93% 29.63 in 1.0 mi NNW 6.9 mph - 0.07 in Rain Rain
3:46 PM 44.6 °F 43.1 °F 42.8 °F 93% 29.64 in 1.0 mi WNW 3.5 mph - 0.13 in Rain Heavy Rain
3:53 PM 44.1 °F 37.4 °F 43.0 °F 96% 29.65 in 0.8 mi WNW 13.8 mph - 0.20 in Rain Rain
4:04 PM 44.6 °F 39.7 °F 42.8 °F 93% 29.69 in 0.8 mi WNW 9.2 mph 20.7 mph 0.13 in Rain Heavy Rain
4:13 PM 46.4 °F 39.5 °F 44.6 °F 93% 29.70 in 1.5 mi West 17.3 mph 32.2 mph 0.24 in Rain Rain
4:21 PM 46.4 °F 41.5 °F 44.6 °F 93% 29.66 in 1.5 mi WNW 10.4 mph 19.6 mph 0.30 in Rain Rain
4:25 PM 46.4 °F 41.9 °F 44.6 °F 93% 29.66 in 3.0 mi WNW 9.2 mph 19.6 mph 0.33 in Rain Light Rain
4:53 PM 46.9 °F - 44.1 °F 90% 29.67 in 7.0 mi SSE 8.1 mph - 0.34 in Rain Light Rain
5:53 PM 48.9 °F - 46.0 °F 90% 29.67 in 5.0 mi SSW 8.1 mph - 0.02 in Rain Light Rain
6:08 PM 48.2 °F - 46.4 °F 93% 29.67 in 6.0 mi WSW 10.4 mph - 0.00 in Rain Light Rain
6:53 PM 46.0 °F 38.0 °F 39.9 °F 79% 29.76 in 7.0 mi West 21.9 mph 39.1 mph 0.02 in   Overcast
7:09 PM 44.6 °F 35.1 °F 37.4 °F 76% 29.77 in 7.0 mi West 27.6 mph 38.0 mph N/A   Mostly Cloudy
7:28 PM 44.6 °F 35.3 °F 37.4 °F 76% 29.78 in 7.0 mi West 26.5 mph 33.4 mph N/A   Overcast
7:38 PM 42.8 °F 33.8 °F 35.6 °F 76% 29.80 in 7.0 mi West 21.9 mph 41.4 mph N/A   Overcast
7:53 PM 42.1 °F 31.5 °F 34.0 °F 73% 29.82 in 7.0 mi West 28.8 mph 36.8 mph N/A   Overcast
8:37 PM 37.4 °F 26.1 °F 30.2 °F 75% 29.86 in 10.0 mi WSW 24.2 mph 36.8 mph N/A   Overcast
8:53 PM 37.9 °F 28.2 °F 30.9 °F 76% 29.89 in 10.0 mi WSW 18.4 mph 27.6 mph N/A   Overcast
9:53 PM 37.0 °F 29.8 °F 30.0 °F 76% 29.90 in 9.0 mi West 10.4 mph - 0.00 in Snow Light Snow
10:53 PM 36.0 °F 27.1 °F 28.9 °F 76% 29.89 in 6.0 mi West 13.8 mph 24.2 mph 0.00 in Snow Light Snow
11:51 PM 35.6 °F 25.5 °F 26.6 °F 70% 29.88 in 4.0 mi West 17.3 mph 23.0 mph 0.00 in Snow Light Snow
11:53 PM 34.0 °F 23.4 °F 27.0 °F 75% 29.89 in 4.0 mi West 17.3 mph 25.3 mph 0.00 in Snow Light Snow